,,,PA_Meas_PMT16A,,PR_Meas_QMR101_102,,RH_Meas_QMH101,,SR_Meas_QMS101,,TA_Meas_QMH101,,GenWind,,GenWind,
date,time,status,PA,status,PR,status,RH,status,SR,status,TA,status,DirAvg,status,SpdAvg,
2008-08-20, 07:57:04,INVALID - VALUE NOT AVAILABLE,0,INVALID - VALUE NOT AVAILABLE,0,INVALID - VALUE NOT AVAILABLE,0,INVALID - VALUE NOT AVAILABLE,0,INVALID - VALUE NOT AVAILABLE,0,INVALID,360,INVALID,0,
2008-08-20, 07:58:04,VALID,1006.97,VALID,0,VALID,91.1422,VALID,153.459,VALID,25.672,VALID,155,VALID,0,
2008-08-20, 07:59:04,VALID,1006.9,VALID,0,VALID,91.6763,VALID,134.754,VALID,25.7304,VALID,205,VALID,0.332422,
2008-08-20, 08:00:04,VALID,1006.86,VALID,0.5,VALID,90.7074,VALID,118.061,VALID,25.6915,VALID,289,VALID,0.649219,
2008-08-20, 08:01:04,VALID,1006.91,VALID,0,VALID,91.2796,VALID,107.301,VALID,25.7109,VALID,355,VALID,0.672266,
2008-08-20, 08:02:04,VALID,1006.87,VALID,0,VALID,91.0354,VALID,105.088,VALID,25.672,VALID,355,VALID,0.377734,
2008-08-20, 08:03:04,VALID,1006.84,VALID,0,VALID,91.0659,VALID,109.312,VALID,25.6525,VALID,355,VALID,0.516797,
2008-08-20, 08:04:04,VALID,1006.89,VALID,0,VALID,91.0049,VALID,107.803,VALID,25.6525,VALID,356,VALID,0.587891,
2008-08-20, 08:05:04,VALID,1006.95,VALID,0,VALID,91.2109,VALID,95.3337,VALID,25.6525,VALID,356,VALID,0.328906,
2008-08-20, 08:06:04,VALID,1007.06,VALID,0,VALID,91.7907,VALID,73.9138,VALID,25.6915,VALID,76,VALID,0.789844,
2008-08-20, 08:07:04,VALID,1007.09,VALID,1,VALID,92.6451,VALID,62.4496,VALID,25.633,VALID,79,VALID,0.108203,
2008-08-20, 08:08:04,VALID,1007.01,VALID,1,VALID,92.7672,VALID,53.1978,VALID,25.4948,VALID,313,VALID,1.09883,
2008-08-20, 08:09:04,VALID,1006.95,VALID,1,VALID,93.6064,VALID,48.5719,VALID,25.4383,VALID,314,VALID,0.131641,
2008-08-20, 08:10:04,VALID,1006.98,VALID,0.5,VALID,93.7284,VALID,41.8342,VALID,25.3409,VALID,5,VALID,1.08438,
2008-08-20, 08:11:04,VALID,1007,VALID,1,VALID,94.0641,VALID,37.7111,VALID,25.2435,VALID,331,VALID,0.360938,
2008-08-20, 08:12:04,VALID,1007.02,VALID,1.5,VALID,94.1785,VALID,36.1021,VALID,25.1461,VALID,286,VALID,0.721094,
2008-08-20, 08:13:04,VALID,1007.01,VALID,1.5,VALID,94.4227,VALID,39.119,VALID,25.0488,VALID,221,VALID,1.0293,
2008-08-20, 08:14:04,VALID,1007.06,VALID,1.5,VALID,94.6363,VALID,42.337,VALID,24.9904,VALID,213,VALID,0.171484,
2008-08-20, 08:15:04,VALID,1007.08,VALID,1.5,VALID,94.7812,VALID,42.337,VALID,24.9319,VALID,31,VALID,1.37422,
2008-08-20, 08:16:04,VALID,1006.97,VALID,2,VALID,94.9643,VALID,48.8736,VALID,24.8735,VALID,352,VALID,1.2,
2008-08-20, 08:17:04,VALID,1006.92,VALID,1,VALID,95.1093,VALID,54.6057,VALID,24.854,VALID,327,VALID,0.159375,
2008-08-20, 08:18:04,VALID,1006.95,VALID,0.5,VALID,95.0787,VALID,52.3933,VALID,24.7956,VALID,203,VALID,0.843359,
2008-08-20, 08:19:04,VALID,1006.95,VALID,0.5,VALID,95.1321,VALID,48.4713,VALID,24.7372,VALID,194,VALID,1.51641,
2008-08-20, 08:20:04,VALID,1006.83,VALID,0.5,VALID,94.9262,VALID,44.0466,VALID,24.599,VALID,160,VALID,1.25,
2008-08-20, 08:21:04,VALID,1006.85,VALID,0,VALID,94.9796,VALID,33.6886,VALID,24.5425,VALID,137,VALID,1.31758,
2008-08-20, 08:22:04,VALID,1006.87,VALID,0,VALID,95.1627,VALID,26.4481,VALID,24.5035,VALID,124,VALID,1.8918,
2008-08-20, 08:23:04,VALID,1006.95,VALID,0,VALID,95.2771,VALID,21.8222,VALID,24.523,VALID,126,VALID,1.11367,
2008-08-20, 08:24:04,VALID,1007.03,VALID,0,VALID,95.4068,VALID,17.3974,VALID,24.5425,VALID,122,VALID,1.4832,
2008-08-20, 08:25:04,VALID,1007.05,VALID,0,VALID,95.3686,VALID,15.4867,VALID,24.5035,VALID,148,VALID,2.36133,
2008-08-20, 08:26:04,VALID,1007.05,VALID,0,VALID,95.3152,VALID,15.0844,VALID,24.4257,VALID,149,VALID,0.983984,
2008-08-20, 08:27:04,VALID,1007.04,VALID,0,VALID,95.4602,VALID,14.7828,VALID,24.4062,VALID,173,VALID,1.45547,
2008-08-20, 08:28:04,VALID,1007.08,VALID,0,VALID,95.5365,VALID,14.6822,VALID,24.3867,VALID,170,VALID,1.31328,
2008-08-20, 08:29:04,VALID,1007.06,VALID,0,VALID,95.6128,VALID,14.9839,VALID,24.3673,VALID,178,VALID,0.8125,
2008-08-20, 08:30:04,VALID,1007.04,VALID,0,VALID,95.6204,VALID,14.9839,VALID,24.3478,VALID,182,VALID,0.302344,
2008-08-20, 08:31:04,VALID,1007.07,VALID,0,VALID,95.6433,VALID,14.4811,VALID,24.3283,VALID,95,VALID,0.366797,
2008-08-20, 08:32:04,VALID,1007.05,VALID,0,VALID,95.7043,VALID,15.5873,VALID,24.307,VALID,95,VALID,0.445703,
2008-08-20, 08:33:04,VALID,1007.11,VALID,0,VALID,95.7272,VALID,18.8053,VALID,24.2875,VALID,97,VALID,0.684375,
2008-08-20, 08:34:04,VALID,1007.13,VALID,0,VALID,95.7272,VALID,22.8278,VALID,24.2894,VALID,95,VALID,0.396094,
2008-08-20, 08:35:04,VALID,1007.14,VALID,0,VALID,95.7882,VALID,28.1576,VALID,24.2894,VALID,131,VALID,0.619531,
2008-08-20, 08:36:04,VALID,1007.11,VALID,0,VALID,95.8187,VALID,35.901,VALID,24.2894,VALID,142,VALID,0.590625,
2008-08-20, 08:37:04,VALID,1007.14,VALID,0,VALID,95.8493,VALID,40.8286,VALID,24.307,VALID,140,VALID,0.260547,
2008-08-20, 08:38:04,VALID,1007.15,VALID,0,VALID,95.9027,VALID,48.1697,VALID,24.3265,VALID,140,VALID,0.335547,
2008-08-20, 08:39:04,VALID,1007.13,VALID,0,VALID,95.9408,VALID,45.9573,VALID,24.3867,VALID,140,VALID,0.579297,
2008-08-20, 08:40:04,VALID,1007.1,VALID,0,VALID,95.9561,VALID,39.8229,VALID,24.4043,VALID,333,VALID,0.446875,
2008-08-20, 08:41:04,VALID,1007.08,VALID,0,VALID,95.9637,VALID,41.8342,VALID,24.4238,VALID,353,VALID,0.683594,
2008-08-20, 08:42:04,VALID,1007.13,VALID,0,VALID,96.0018,VALID,46.5606,VALID,24.4628,VALID,355,VALID,0.434375,
2008-08-20, 08:43:04,VALID,1007.1,VALID,0,VALID,95.9789,VALID,49.5775,VALID,24.4646,VALID,358,VALID,0.232812,
2008-08-20, 08:44:04,VALID,1007.09,VALID,0,VALID,95.9789,VALID,45.8567,VALID,24.4628,VALID,359,VALID,1.37188,
2008-08-20, 08:45:04,VALID,1007.12,VALID,0,VALID,96.0095,VALID,38.6162,VALID,24.4841,VALID,18,VALID,0.913281,
2008-08-20, 08:46:04,VALID,1007.11,VALID,0,VALID,96.0171,VALID,34.9959,VALID,24.5035,VALID,11,VALID,0.604688,
2008-08-20, 08:47:04,VALID,1007.12,VALID,0,VALID,95.9789,VALID,33.8897,VALID,24.4238,VALID,330,VALID,0.764844,
2008-08-20, 08:48:04,VALID,1007.15,VALID,0,VALID,95.9789,VALID,36.806,VALID,24.4451,VALID,353,VALID,0.487109,
2008-08-20, 08:49:04,VALID,1007.16,VALID,0,VALID,95.9713,VALID,37.8117,VALID,24.4646,VALID,354,VALID,0.453906,
2008-08-20, 08:50:04,VALID,1007.18,VALID,0,VALID,96.0018,VALID,44.5494,VALID,24.4628,VALID,9,VALID,0.39375,
2008-08-20, 08:51:04,VALID,1007.2,VALID,0,VALID,96.0247,VALID,60.5389,VALID,24.5017,VALID,52,VALID,0.849609,
2008-08-20, 08:52:04,VALID,1007.19,VALID,0,VALID,96.0247,VALID,64.5614,VALID,24.5017,VALID,21,VALID,0.853516,
2008-08-20, 08:53:04,VALID,1007.15,VALID,0,VALID,96.0095,VALID,67.0755,VALID,24.4628,VALID,20,VALID,1.26719,
2008-08-20, 08:54:04,VALID,1007.11,VALID,0,VALID,96.0018,VALID,83.3667,VALID,24.4628,VALID,345,VALID,0.982031,
2008-08-20, 08:55:04,VALID,1007.06,VALID,0,VALID,96.0171,VALID,92.9202,VALID,24.4822,VALID,347,VALID,0.793359,
2008-08-20, 08:56:04,VALID,1007.01,VALID,0,VALID,95.9637,VALID,82.8639,VALID,24.4238,VALID,350,VALID,1.67227,
2008-08-20, 08:57:04,VALID,1007.06,VALID,0,VALID,95.9637,VALID,73.4109,VALID,24.4043,VALID,22,VALID,0.652344,
2008-08-20, 08:58:04,VALID,1007.05,VALID,0,VALID,95.9866,VALID,71.2991,VALID,24.4628,VALID,22,VALID,0.116797,
2008-08-20, 08:59:04,VALID,1007.11,VALID,0,VALID,96.0323,VALID,70.9974,VALID,24.5425,VALID,84,VALID,0.407422,
2008-08-20, 09:00:04,VALID,1007.11,VALID,0,VALID,96.0247,VALID,66.1704,VALID,24.5212,VALID,60,VALID,0.734766,
2008-08-20, 09:01:04,VALID,1007.13,VALID,0,VALID,96.0476,VALID,53.4995,VALID,24.5388,VALID,33,VALID,0.373828,
2008-08-20, 09:02:04,VALID,1007.12,VALID,0,VALID,96.04,VALID,55.8124,VALID,24.5582,VALID,6,VALID,0.585938,
2008-08-20, 09:03:04,VALID,1007.12,VALID,0,VALID,96.0323,VALID,50.8848,VALID,24.6009,VALID,3,VALID,0.290625,
2008-08-20, 09:04:04,VALID,1007.14,VALID,0,VALID,96.0171,VALID,41.2308,VALID,24.5212,VALID,10,VALID,0.846484,
2008-08-20, 09:05:04,VALID,1007.14,VALID,0,VALID,96.0095,VALID,37.4094,VALID,24.5425,VALID,20,VALID,0.980469,
2008-08-20, 09:06:04,VALID,1007.11,VALID,0,VALID,96.0095,VALID,50.0803,VALID,24.5406,VALID,21,VALID,1.0832,
2008-08-20, 09:07:04,VALID,1007.13,VALID,0,VALID,96.0171,VALID,58.8293,VALID,24.5017,VALID,53,VALID,0.598047,
2008-08-20, 09:08:04,VALID,1007.16,VALID,0,VALID,96.0247,VALID,49.477,VALID,24.5406,VALID,36,VALID,0.338281,
2008-08-20, 09:09:04,VALID,1007.21,VALID,0,VALID,96.0476,VALID,56.8181,VALID,24.5814,VALID,35,VALID,0.499219,
2008-08-20, 09:10:04,VALID,1007.25,VALID,0,VALID,96.0476,VALID,70.6957,VALID,24.5601,VALID,82,VALID,0.780859,
2008-08-20, 09:11:04,VALID,1007.27,VALID,0,VALID,96.0323,VALID,88.8976,VALID,24.5814,VALID,116,VALID,0.401563,
2008-08-20, 09:12:04,VALID,1007.24,VALID,0,VALID,96.04,VALID,76.5284,VALID,24.5796,VALID,64,VALID,0.707031,
2008-08-20, 09:13:04,VALID,1007.24,VALID,0,VALID,96.04,VALID,61.5445,VALID,24.5582,VALID,80,VALID,0.382813,
2008-08-20, 09:14:04,VALID,1007.22,VALID,0,VALID,96.0552,VALID,60.5389,VALID,24.599,VALID,80,VALID,0.266016,
2008-08-20, 09:15:04,VALID,1007.2,VALID,0,VALID,96.0552,VALID,78.9419,VALID,24.6185,VALID,80,VALID,0,
2008-08-20, 09:16:04,VALID,1007.22,VALID,0,VALID,96.0552,VALID,90.0038,VALID,24.6574,VALID,73,VALID,0.0152344,
2008-08-20, 09:17:04,VALID,1007.19,VALID,0,VALID,96.0705,VALID,96.3393,VALID,24.6983,VALID,159,VALID,1.12656,
2008-08-20, 09:18:04,VALID,1007.19,VALID,0,VALID,96.0781,VALID,98.6523,VALID,24.7743,VALID,101,VALID,1.28828,
2008-08-20, 09:19:04,VALID,1007.17,VALID,0,VALID,96.0476,VALID,100.462,VALID,24.8522,VALID,146,VALID,1.24258,
2008-08-20, 09:20:04,VALID,1007.17,VALID,0,VALID,96.04,VALID,91.9145,VALID,24.9319,VALID,69,VALID,1.20859,
2008-08-20, 09:21:04,VALID,1007.22,VALID,0,VALID,95.9255,VALID,80.8526,VALID,24.969,VALID,139,VALID,3.12578,
2008-08-20, 09:22:04,VALID,1007.23,VALID,0,VALID,95.8187,VALID,77.3329,VALID,25.0663,VALID,127,VALID,1.14414,
2008-08-20, 09:23:04,VALID,1007.25,VALID,0,VALID,95.7424,VALID,82.0594,VALID,25.1053,VALID,125,VALID,1.2582,
2008-08-20, 09:24:04,VALID,1007.3,VALID,0,VALID,95.5746,VALID,86.3836,VALID,25.1656,VALID,124,VALID,1.88594,
2008-08-20, 09:25:04,VALID,1007.31,VALID,0,VALID,95.4754,VALID,84.3723,VALID,25.1832,VALID,110,VALID,1.50859,
2008-08-20, 09:26:04,VALID,1007.33,VALID,0,VALID,95.3076,VALID,82.5622,VALID,25.2221,VALID,102,VALID,0.767187,
2008-08-20, 09:27:04,VALID,1007.36,VALID,0,VALID,95.2313,VALID,77.9363,VALID,25.2435,VALID,144,VALID,1.40508,
2008-08-20, 09:28:04,VALID,1007.29,VALID,0,VALID,95.0406,VALID,70.5952,VALID,25.2806,VALID,138,VALID,1.84141,
2008-08-20, 09:29:04,VALID,1007.31,VALID,0,VALID,94.8651,VALID,70.3941,VALID,25.3214,VALID,103,VALID,2.43711,
2008-08-20, 09:30:04,VALID,1007.32,VALID,0,VALID,94.7431,VALID,68.3828,VALID,25.3409,VALID,100,VALID,3.23984,
2008-08-20, 09:31:04,VALID,1007.29,VALID,0,VALID,94.4455,VALID,64.662,VALID,25.3798,VALID,114,VALID,1.83672,
2008-08-20, 09:32:04,VALID,1007.3,VALID,0,VALID,93.881,VALID,58.0248,VALID,25.3974,VALID,135,VALID,3.98867,
2008-08-20, 09:33:04,VALID,1007.31,VALID,0,VALID,93.3622,VALID,52.2927,VALID,25.4577,VALID,117,VALID,2.77109,
2008-08-20, 09:34:04,VALID,1007.33,VALID,0,VALID,93.1944,VALID,55.7119,VALID,25.4383,VALID,128,VALID,2.39883,
2008-08-20, 09:35:04,VALID,1007.38,VALID,0,VALID,92.9274,VALID,57.0192,VALID,25.4772,VALID,78,VALID,2.02266,
2008-08-20, 09:36:04,VALID,1007.43,VALID,0,VALID,92.9579,VALID,61.444,VALID,25.4383,VALID,102,VALID,2.025,
2008-08-20, 09:37:04,VALID,1007.45,VALID,0,VALID,92.9274,VALID,56.6169,VALID,25.4188,VALID,76,VALID,2.19141,
2008-08-20, 09:38:04,VALID,1007.45,VALID,0,VALID,93.2402,VALID,49.2758,VALID,25.4012,VALID,108,VALID,1.25469,
2008-08-20, 09:39:04,VALID,1007.46,VALID,0,VALID,93.408,VALID,45.0522,VALID,25.3604,VALID,75,VALID,0.648438,
2008-08-20, 09:40:04,VALID,1007.46,VALID,0,VALID,93.3241,VALID,40.9291,VALID,25.3019,VALID,76,VALID,1.42734,
2008-08-20, 09:41:04,VALID,1007.6,VALID,0,VALID,93.3622,VALID,38.5156,VALID,25.3019,VALID,92,VALID,1.79688,
2008-08-20, 09:42:04,VALID,1007.6,VALID,0,VALID,91.6534,VALID,28.9621,VALID,25.1851,VALID,68,VALID,3.92109,
2008-08-20, 09:43:04,VALID,1007.66,VALID,0,VALID,91.2109,VALID,22.8278,VALID,24.9125,VALID,72,VALID,1.82656,
2008-08-20, 09:44:04,VALID,1007.69,VALID,0,VALID,91.1651,VALID,22.6267,VALID,24.6574,VALID,82,VALID,2.31992,
2008-08-20, 09:45:04,VALID,1007.78,VALID,0,VALID,91.5695,VALID,14.5816,VALID,24.5054,VALID,71,VALID,2.53984,
2008-08-20, 09:46:04,VALID,1007.83,VALID,0,VALID,91.8746,VALID,9.85517,VALID,24.3478,VALID,87,VALID,2.45547,
2008-08-20, 09:47:04,VALID,1007.89,VALID,0,VALID,91.8822,VALID,7.94447,VALID,24.2115,VALID,40,VALID,3.18438,
2008-08-20, 09:48:04,VALID,1007.93,VALID,0,VALID,92.2789,VALID,8.04504,VALID,24.0947,VALID,39,VALID,2.0125,
2008-08-20, 09:49:04,VALID,1007.89,VALID,0,VALID,92.2713,VALID,8.1456,VALID,24.0168,VALID,71,VALID,2.92969,
2008-08-20, 09:50:04,VALID,1007.78,VALID,0,VALID,92.6985,VALID,10.5591,VALID,23.9389,VALID,36,VALID,1.26094,
2008-08-20, 09:51:04,VALID,1007.79,VALID,0,VALID,92.2408,VALID,16.0901,VALID,23.8611,VALID,106,VALID,4.51992,
2008-08-20, 09:52:04,VALID,1007.9,VALID,0,VALID,92.5154,VALID,17.1963,VALID,23.8611,VALID,73,VALID,2.89609,
2008-08-20, 09:53:04,VALID,1007.97,VALID,0,VALID,91.0888,VALID,22.1238,VALID,23.7814,VALID,64,VALID,3.41992,
2008-08-20, 09:54:04,VALID,1008.06,VALID,0,VALID,91.3864,VALID,23.8334,VALID,23.7443,VALID,66,VALID,2.17031,
2008-08-20, 09:55:04,VALID,1008.13,VALID,0,VALID,90.3946,VALID,17.498,VALID,23.6664,VALID,68,VALID,4.27734,
2008-08-20, 09:56:04,VALID,1008.12,VALID,0,VALID,90.7608,VALID,13.6766,VALID,23.5868,VALID,84,VALID,2.73633,
2008-08-20, 09:57:04,VALID,1008.15,VALID,0.5,VALID,91.0812,VALID,11.967,VALID,23.4505,VALID,28,VALID,2.32109,
2008-08-20, 09:58:04,VALID,1008.14,VALID,0,VALID,91.6,VALID,13.0732,VALID,23.2966,VALID,35,VALID,2.27227,
2008-08-20, 09:59:04,VALID,1008.18,VALID,0,VALID,92.0348,VALID,16.794,VALID,23.1603,VALID,41,VALID,1.93516,
2008-08-20, 10:00:04,VALID,1008.2,VALID,0,VALID,92.5307,VALID,17.0957,VALID,23.1019,VALID,73,VALID,2.46406,
2008-08-20, 10:01:04,VALID,1008.24,VALID,0,VALID,92.3781,VALID,17.0957,VALID,23.0046,VALID,52,VALID,2.61602,
2008-08-20, 10:02:04,VALID,1008.21,VALID,0,VALID,92.5841,VALID,16.9951,VALID,22.9445,VALID,57,VALID,3.1918,
2008-08-20, 10:03:04,VALID,1008.15,VALID,0,VALID,92.4315,VALID,17.0957,VALID,22.9073,VALID,76,VALID,2.74492,
2008-08-20, 10:04:04,VALID,1008.21,VALID,0,VALID,92.6222,VALID,16.6934,VALID,22.8278,VALID,90,VALID,2.5832,
2008-08-20, 10:05:04,VALID,1008.18,VALID,0,VALID,92.5078,VALID,16.0901,VALID,22.7906,VALID,75,VALID,2.32344,
2008-08-20, 10:06:04,VALID,1008.24,VALID,0.5,VALID,92.8816,VALID,14.0788,VALID,22.6332,VALID,67,VALID,1.74023,
2008-08-20, 10:07:04,VALID,1008.3,VALID,0.5,VALID,92.7367,VALID,11.0619,VALID,22.5181,VALID,42,VALID,3.25781,
2008-08-20, 10:08:04,VALID,1007.53,VALID,1,VALID,93.0037,VALID,10.2574,VALID,22.3218,VALID,75,VALID,3.54258,
2008-08-20, 11:42:04,VALID,1006.41,VALID,0,VALID,90.9363,VALID,349.356,VALID,24.2699,VALID,61,VALID,1.66172,
2008-08-20, 11:43:04,VALID,1006.42,VALID,0,VALID,91.4474,VALID,368.563,VALID,24.3478,VALID,73,VALID,0.870313,
2008-08-20, 11:44:04,VALID,1006.39,VALID,0,VALID,90.7684,VALID,388.977,VALID,24.4062,VALID,26,VALID,1.53359,
2008-08-20, 11:45:04,VALID,1006.36,VALID,0,VALID,90.8523,VALID,410.096,VALID,24.4646,VALID,93,VALID,0.567578,
2008-08-20, 11:46:04,VALID,1006.34,VALID,0,VALID,91.0125,VALID,426.186,VALID,24.5406,VALID,69,VALID,0.741406,
2008-08-20, 11:47:04,VALID,1006.31,VALID,0,VALID,90.4099,VALID,430.309,VALID,24.6009,VALID,86,VALID,1.30234,
2008-08-20, 11:48:04,VALID,1006.33,VALID,0,VALID,90.86,VALID,424.074,VALID,24.6788,VALID,64,VALID,0.685156,
2008-08-20, 11:49:04,VALID,1006.27,VALID,0,VALID,90.7379,VALID,423.571,VALID,24.7372,VALID,18,VALID,1.71719,
2008-08-20, 11:50:04,VALID,1006.28,VALID,0,VALID,89.5173,VALID,416.833,VALID,24.7761,VALID,22,VALID,1.50547,
2008-08-20, 11:51:04,VALID,1006.26,VALID,0,VALID,90.5396,VALID,411.101,VALID,24.8346,VALID,53,VALID,0.728125,
2008-08-20, 11:52:04,VALID,1006.24,VALID,0,VALID,89.5783,VALID,409.191,VALID,24.8735,VALID,78,VALID,1.61719,
2008-08-20, 11:53:04,VALID,1006.23,VALID,0,VALID,89.9445,VALID,407.783,VALID,24.93,VALID,78,VALID,1.03281,
2008-08-20, 11:54:04,VALID,1006.17,VALID,0,VALID,89.8301,VALID,408.185,VALID,24.9495,VALID,10,VALID,0.778906,
2008-08-20, 11:55:04,VALID,1006.14,VALID,0,VALID,90.86,VALID,410.8,VALID,25.0858,VALID,40,VALID,0.369922,
2008-08-20, 11:56:04,VALID,1006.13,VALID,0,VALID,89.1892,VALID,417.336,VALID,25.1267,VALID,38,VALID,1.31758,
2008-08-20, 11:57:04,VALID,1006.12,VALID,0,VALID,88.7239,VALID,427.191,VALID,25.1267,VALID,26,VALID,0.961328,
2008-08-20, 11:58:04,VALID,1006.11,VALID,0,VALID,89.4563,VALID,441.27,VALID,25.1656,VALID,15,VALID,0.518359,
2008-08-20, 11:59:04,VALID,1006.09,VALID,0,VALID,89.5402,VALID,462.59,VALID,25.224,VALID,65,VALID,0.442578,
2008-08-20, 12:00:04,VALID,1006.11,VALID,0,VALID,89.502,VALID,493.161,VALID,25.3428,VALID,46,VALID,0.828125,
2008-08-20, 12:01:04,VALID,1006.1,VALID,0,VALID,88.1593,VALID,489.038,VALID,25.3818,VALID,40,VALID,1.98672,
2008-08-20, 12:02:04,VALID,1006.08,VALID,0,VALID,88.3653,VALID,504.122,VALID,25.4207,VALID,96,VALID,1.75039,
2008-08-20, 12:03:04,VALID,1006.06,VALID,0,VALID,88.1975,VALID,532.984,VALID,25.4188,VALID,58,VALID,0.605078,
2008-08-20, 12:04:04,VALID,1006.03,VALID,0,VALID,89.1664,VALID,549.476,VALID,25.5551,VALID,40,VALID,0.0992187,
2008-08-20, 12:05:04,VALID,1006.04,VALID,0,VALID,90.3107,VALID,527.252,VALID,25.6895,VALID,49,VALID,0.966406,
2008-08-20, 12:06:04,VALID,1005.98,VALID,0,VALID,87.7245,VALID,528.358,VALID,25.7519,VALID,54,VALID,1.93594,
2008-08-20, 12:07:04,VALID,1005.97,VALID,0,VALID,88.167,VALID,524.637,VALID,25.7908,VALID,22,VALID,1.34297,
2008-08-20, 12:08:04,VALID,1005.98,VALID,0,VALID,87.7932,VALID,535.598,VALID,25.8473,VALID,25,VALID,1.45273,
2008-08-20, 12:09:04,VALID,1005.95,VALID,0,VALID,87.8847,VALID,541.733,VALID,25.8668,VALID,31,VALID,1.35469,
2008-08-20, 12:10:04,VALID,1005.93,VALID,0,VALID,88.7773,VALID,536.403,VALID,25.9836,VALID,34,VALID,1.01992,
2008-08-20, 12:11:04,VALID,1005.9,VALID,0,VALID,87.3965,VALID,533.084,VALID,25.9622,VALID,58,VALID,1.73711,
2008-08-20, 12:12:04,VALID,1005.89,VALID,0,VALID,86.9692,VALID,539.017,VALID,25.9836,VALID,9,VALID,1.40742,
2008-08-20, 12:13:04,VALID,1005.87,VALID,0,VALID,87.3888,VALID,535.799,VALID,26.0421,VALID,78,VALID,1.12969,
2008-08-20, 12:14:04,VALID,1005.84,VALID,0,VALID,87.9381,VALID,601.065,VALID,26.159,VALID,52,VALID,0.882813,
2008-08-20, 12:15:04,VALID,1005.85,VALID,0,VALID,87.5414,VALID,625.602,VALID,26.2349,VALID,50,VALID,0.969141,
2008-08-20, 12:16:04,VALID,1005.85,VALID,0,VALID,85.7562,VALID,504.826,VALID,26.3343,VALID,77,VALID,1.50742,
2008-08-20, 12:17:04,VALID,1005.82,VALID,0,VALID,86.4734,VALID,486.926,VALID,26.3323,VALID,6,VALID,1.02734,
2008-08-20, 12:18:04,VALID,1005.82,VALID,0,VALID,87.3736,VALID,533.688,VALID,26.4102,VALID,38,VALID,1.06875,
2008-08-20, 12:19:04,VALID,1005.81,VALID,0,VALID,87.0379,VALID,884.049,VALID,26.4707,VALID,76,VALID,1.23945,
2008-08-20, 12:20:04,VALID,1005.8,VALID,0,VALID,85.8249,VALID,920.352,VALID,26.5876,VALID,44,VALID,1.34375,
2008-08-20, 12:21:04,VALID,1005.77,VALID,0,VALID,85.123,VALID,740.847,VALID,26.6265,VALID,45,VALID,1.47148,
2008-08-20, 12:22:04,VALID,1005.77,VALID,0,VALID,86.3055,VALID,746.076,VALID,26.7239,VALID,63,VALID,1.47891,
2008-08-20, 12:23:04,VALID,1005.75,VALID,0,VALID,86.3284,VALID,856.796,VALID,26.7629,VALID,105,VALID,1.38477,
2008-08-20, 12:24:04,VALID,1005.7,VALID,0,VALID,84.856,VALID,723.55,VALID,26.7434,VALID,103,VALID,0.792188,
2008-08-20, 12:25:04,VALID,1005.66,VALID,0,VALID,87.1752,VALID,662.81,VALID,26.8603,VALID,121,VALID,1.82773,
2008-08-20, 12:26:04,VALID,1005.6,VALID,0,VALID,84.5204,VALID,813.554,VALID,26.8798,VALID,87,VALID,0.869141,
2008-08-20, 12:27:04,VALID,1005.59,VALID,0,VALID,84.8408,VALID,871.277,VALID,26.9988,VALID,125,VALID,0.889844,
2008-08-20, 12:28:04,VALID,1005.56,VALID,0,VALID,86.3818,VALID,921.861,VALID,27.0767,VALID,151,VALID,0.535937,
2008-08-20, 12:29:04,VALID,1005.5,VALID,0,VALID,85.5503,VALID,716.813,VALID,27.2911,VALID,88,VALID,0.412891,
2008-08-20, 12:30:04,VALID,1005.45,VALID,0,VALID,85.6342,VALID,903.055,VALID,27.5055,VALID,32,VALID,0.812891,
2008-08-20, 12:31:04,VALID,1005.45,VALID,0,VALID,83.3226,VALID,975.159,VALID,27.4839,VALID,82,VALID,1.18477,
2008-08-20, 12:32:04,VALID,1005.43,VALID,0,VALID,82.9488,VALID,954.946,VALID,27.5639,VALID,17,VALID,1.65391,
2008-08-20, 12:33:04,VALID,1005.44,VALID,0,VALID,82.4224,VALID,932.42,VALID,27.6029,VALID,50,VALID,0.894531,
2008-08-20, 12:34:04,VALID,1005.38,VALID,0,VALID,82.8649,VALID,912.106,VALID,27.6983,VALID,98,VALID,1.8543,
2008-08-20, 12:35:04,VALID,1005.34,VALID,0,VALID,81.4688,VALID,928.397,VALID,27.6983,VALID,77,VALID,0.915625,
2008-08-20, 12:36:04,VALID,1005.31,VALID,0,VALID,81.4993,VALID,996.177,VALID,27.8173,VALID,84,VALID,0.827734,
2008-08-20, 12:37:04,VALID,1005.24,VALID,0,VALID,81.6977,VALID,970.131,VALID,27.8347,VALID,157,VALID,1.68203,
2008-08-20, 12:38:04,VALID,1005.25,VALID,0,VALID,78.6232,VALID,982.399,VALID,27.7762,VALID,94,VALID,1.32148,
2008-08-20, 12:39:04,VALID,1005.17,VALID,0,VALID,78.6385,VALID,1046.36,VALID,27.6983,VALID,139,VALID,2.56719,
2008-08-20, 12:40:04,VALID,1005.15,VALID,0,VALID,79.9278,VALID,547.264,VALID,27.6635,VALID,131,VALID,1.60234,
2008-08-20, 12:41:04,VALID,1005.17,VALID,0,VALID,81.4459,VALID,387.469,VALID,27.5834,VALID,113,VALID,1.53086,
2008-08-20, 12:42:04,VALID,1005.06,VALID,0,VALID,80.4771,VALID,581.153,VALID,27.5618,VALID,47,VALID,0.6125,
2008-08-20, 12:43:04,VALID,1005.04,VALID,0,VALID,80.9272,VALID,1036.4,VALID,27.6788,VALID,150,VALID,1.64531,
2008-08-20, 12:44:04,VALID,1005.01,VALID,0,VALID,82.6894,VALID,535.397,VALID,27.9516,VALID,144,VALID,1.4875,
2008-08-20, 12:45:04,VALID,1004.94,VALID,0,VALID,81.9799,VALID,790.023,VALID,28.0296,VALID,121,VALID,0.405078,
2008-08-20, 12:46:04,VALID,1004.9,VALID,0,VALID,79.0428,VALID,950.823,VALID,28.1076,VALID,40,VALID,1.19492,
2008-08-20, 12:47:04,VALID,1004.88,VALID,0,VALID,77.1661,VALID,965.505,VALID,28.2462,VALID,123,VALID,2.26758,
2008-08-20, 12:48:04,VALID,1004.87,VALID,0,VALID,76.8228,VALID,959.069,VALID,28.3415,VALID,136,VALID,1.38398,
2008-08-20, 12:49:04,VALID,1004.87,VALID,0,VALID,77.5171,VALID,879.021,VALID,28.4411,VALID,90,VALID,1.49961,
2008-08-20, 12:50:04,VALID,1004.81,VALID,0,VALID,75.6098,VALID,871.478,VALID,28.5364,VALID,109,VALID,2.17383,
2008-08-20, 12:51:04,VALID,1004.81,VALID,0,VALID,73.9467,VALID,964.6,VALID,28.5191,VALID,118,VALID,2.07266,
2008-08-20, 12:52:04,VALID,1004.81,VALID,0,VALID,77.5628,VALID,539.319,VALID,28.5971,VALID,123,VALID,1.82813,
2008-08-20, 12:53:04,VALID,1004.76,VALID,0,VALID,74.6257,VALID,442.477,VALID,28.6166,VALID,107,VALID,2.15508,
2008-08-20, 12:54:04,VALID,1004.74,VALID,0,VALID,71.9785,VALID,265.285,VALID,28.4021,VALID,110,VALID,2.2418,
2008-08-20, 12:55:04,VALID,1004.72,VALID,0,VALID,74.5418,VALID,915.726,VALID,28.3241,VALID,111,VALID,1.43438,
2008-08-20, 12:56:04,VALID,1004.67,VALID,0,VALID,74.9232,VALID,811.241,VALID,28.3415,VALID,148,VALID,1.30273,
2008-08-20, 12:57:04,VALID,1004.66,VALID,0,VALID,73.1381,VALID,914.922,VALID,28.4411,VALID,141,VALID,2.01875,
2008-08-20, 12:58:04,VALID,1004.7,VALID,0,VALID,70.8265,VALID,912.106,VALID,28.4,VALID,137,VALID,4.35313,
2008-08-20, 12:59:04,VALID,1004.64,VALID,0,VALID,72.421,VALID,880.529,VALID,28.4021,VALID,151,VALID,3.23516,
2008-08-20, 13:00:04,VALID,1004.62,VALID,0,VALID,73.1762,VALID,883.244,VALID,28.3826,VALID,168,VALID,3.50508,
2008-08-20, 13:01:04,VALID,1004.63,VALID,0,VALID,72.1234,VALID,909.692,VALID,28.4389,VALID,149,VALID,4.02227,
2008-08-20, 13:02:04,VALID,1004.64,VALID,0,VALID,72.215,VALID,921.76,VALID,28.4584,VALID,166,VALID,3.78437,
2008-08-20, 13:03:04,VALID,1004.63,VALID,0,VALID,71.4674,VALID,932.621,VALID,28.4974,VALID,142,VALID,3.00508,